Location: Campillo
(40.8621°N, 4.2488°W)
Time: 11:05:34
(UTC+00:00)

USA 290 - Visible Passes

Search period start: 28 September 2021 00:00
Search period end: 08 October 2021 00:00
Orbit: 398 x 414 km, 73.6° (Epoch: 01 September)

Date Brightness Start Highest point End Pass type
(mag) Time Alt. Az. Time Alt. Az. Time Alt. Az.
28 Sep 2.3 04:30:51 63° NNW 04:30:51 63° NNW 04:33:49 10° NNE visible
29 Sep 5.0 03:42:34 19° NE 03:42:34 19° NE 03:43:44 10° NE visible
29 Sep 4.3 05:15:21 13° WNW 05:15:21 13° WNW 05:16:50 10° NNW visible
30 Sep 4.2 04:26:56 20° NNW 04:26:56 20° NNW 04:28:12 10° N visible
01 Oct 5.6 03:38:28 10° NNE 03:38:28 10° NNE 03:38:31 10° NNE visible
